GLO7223 SBGR-SULS

Flight info

Callsign GLO7223
Flight time 2h 18m
Altitude 36000
Route UBSOD UZ38 UMDEX DCT CXS DCT TOLEP UM424 LDS DCT
Aircraft B738/M-SDFGIKLORWXY/LB1

Departure

Time 2026-05-03 20:22
Airport São Paulo/Guarulhos–Governor André Franco Montoro International Airport (SBGR)

Arrival

Time 2026-05-03 22:40
Airport Capitan Corbeta CA Curbelo International Airport (SULS)
Time Latitude Longitude Altitude Speed Heading
2026-05-03 20:15 -23.42742 -46.47890 2447 ft 1 kts 167°
2026-05-03 20:15 -23.42739 -46.47891 2447 ft 0 kts 169°
2026-05-03 20:16 -23.42772 -46.47884 2447 ft 14 kts 168°
2026-05-03 20:17 -23.42819 -46.47874 2447 ft 2 kts 168°
2026-05-03 20:17 -23.42860 -46.47856 2446 ft 7 kts 146°
2026-05-03 20:17 -23.42911 -46.47831 2446 ft 8 kts 168°
2026-05-03 20:17 -23.42972 -46.47820 2446 ft 9 kts 171°
2026-05-03 20:18 -23.43029 -46.47841 2446 ft 9 kts 230°
2026-05-03 20:18 -23.43055 -46.47910 2446 ft 10 kts 252°
2026-05-03 20:18 -23.43076 -46.47990 2446 ft 11 kts 254°
2026-05-03 20:18 -23.43097 -46.48066 2446 ft 10 kts 253°
2026-05-03 20:19 -23.43116 -46.48137 2446 ft 9 kts 253°
2026-05-03 20:19 -23.43133 -46.48199 2446 ft 8 kts 253°
2026-05-03 20:19 -23.43149 -46.48256 2446 ft 8 kts 253°
2026-05-03 20:19 -23.43168 -46.48324 2446 ft 9 kts 252°
2026-05-03 20:20 -23.43199 -46.48375 2446 ft 7 kts 204°
2026-05-03 20:20 -23.43241 -46.48384 2446 ft 4 kts 173°
2026-05-03 20:20 -23.43264 -46.48381 2447 ft 1 kts 171°
2026-05-03 20:20 -23.43270 -46.48380 2447 ft 1 kts 166°
2026-05-03 20:21 -23.43312 -46.48363 2448 ft 11 kts 159°
2026-05-03 20:21 -23.43405 -46.48312 2451 ft 17 kts 111°
2026-05-03 20:21 -23.43366 -46.48112 2451 ft 53 kts 78°
2026-05-03 20:21 -23.43201 -46.47450 2451 ft 124 kts 72°
2026-05-03 20:22 -23.42896 -46.46319 2447 ft 186 kts 76°
2026-05-03 20:22 -23.42541 -46.44901 3098 ft 197 kts 75°
2026-05-03 20:22 -23.42098 -46.43504 4024 ft 203 kts 72°
2026-05-03 20:22 -23.41594 -46.42004 4748 ft 219 kts 71°
2026-05-03 20:23 -23.41104 -46.40419 5559 ft 232 kts 72°
2026-05-03 20:23 -23.40606 -46.38694 6352 ft 246 kts 72°
2026-05-03 20:23 -23.40165 -46.36844 7061 ft 264 kts 81°
2026-05-03 20:23 -23.40251 -46.34804 7776 ft 281 kts 103°
2026-05-03 20:24 -23.40881 -46.32760 8634 ft 290 kts 111°
2026-05-03 20:24 -23.41826 -46.30827 9415 ft 299 kts 131°
2026-05-03 20:24 -23.43479 -46.29489 10319 ft 299 kts 160°
2026-05-03 20:24 -23.45520 -46.29028 11001 ft 306 kts 182°
2026-05-03 20:25 -23.47649 -46.29451 11563 ft 315 kts 202°
2026-05-03 20:25 -23.49571 -46.30641 12125 ft 325 kts 220°
2026-05-03 20:25 -23.51236 -46.32294 12918 ft 328 kts 226°
2026-05-03 20:25 -23.52838 -46.34082 13747 ft 330 kts 228°
2026-05-03 20:26 -23.54430 -46.35891 14570 ft 332 kts 227°
2026-05-03 20:26 -23.56021 -46.37674 15313 ft 335 kts 227°
2026-05-03 20:26 -23.57669 -46.39493 16064 ft 338 kts 227°
2026-05-03 20:26 -23.59353 -46.41333 16782 ft 342 kts 227°
2026-05-03 20:27 -23.61030 -46.43155 17509 ft 343 kts 227°
2026-05-03 20:27 -23.62721 -46.44989 18196 ft 346 kts 227°
2026-05-03 20:27 -23.64429 -46.46841 18912 ft 347 kts 227°
2026-05-03 20:27 -23.66123 -46.48679 19642 ft 346 kts 227°
2026-05-03 20:28 -23.67838 -46.50541 20342 ft 346 kts 227°
2026-05-03 20:28 -23.69527 -46.52375 20988 ft 346 kts 227°
2026-05-03 20:28 -23.71245 -46.54242 21600 ft 347 kts 227°
2026-05-03 20:28 -23.72940 -46.56085 22209 ft 348 kts 227°
2026-05-03 20:29 -23.74666 -46.57962 22855 ft 347 kts 228°
2026-05-03 20:29 -23.76390 -46.59839 23318 ft 351 kts 228°
2026-05-03 20:29 -23.78132 -46.61739 23763 ft 354 kts 229°
2026-05-03 20:29 -23.79867 -46.63629 24249 ft 357 kts 229°
2026-05-03 20:30 -23.81633 -46.65555 24706 ft 360 kts 230°
2026-05-03 20:30 -23.83413 -46.67497 25158 ft 363 kts 230°
2026-05-03 20:30 -23.85196 -46.69444 25604 ft 366 kts 230°
2026-05-03 20:30 -23.87012 -46.71425 26120 ft 367 kts 231°
2026-05-03 20:31 -23.88832 -46.73414 26498 ft 371 kts 231°
2026-05-03 20:31 -23.90663 -46.75415 26917 ft 374 kts 231°
2026-05-03 20:31 -23.92511 -46.77437 27314 ft 377 kts 232°
2026-05-03 20:31 -23.94357 -46.79455 27707 ft 379 kts 232°
2026-05-03 20:32 -23.96227 -46.81501 28049 ft 383 kts 232°
2026-05-03 20:32 -23.98109 -46.83561 28520 ft 384 kts 232°
2026-05-03 20:32 -24.00028 -46.85664 28775 ft 389 kts 232°
2026-05-03 20:32 -24.01945 -46.87766 29218 ft 390 kts 233°
2026-05-03 20:33 -24.03866 -46.89871 29639 ft 392 kts 232°
2026-05-03 20:33 -24.05793 -46.91982 30031 ft 394 kts 233°
2026-05-03 20:33 -24.07728 -46.94105 30360 ft 397 kts 232°
2026-05-03 20:33 -24.09670 -46.96235 30733 ft 398 kts 232°
2026-05-03 20:34 -24.11658 -46.98417 31062 ft 401 kts 232°
2026-05-03 20:34 -24.13628 -47.00581 31417 ft 403 kts 232°
2026-05-03 20:34 -24.15602 -47.02750 31775 ft 404 kts 232°
2026-05-03 20:34 -24.17587 -47.04930 32167 ft 404 kts 232°
2026-05-03 20:35 -24.19591 -47.07134 32492 ft 406 kts 232°
2026-05-03 20:35 -24.21571 -47.09312 32898 ft 405 kts 232°
2026-05-03 20:35 -24.23566 -47.11496 33356 ft 403 kts 231°
2026-05-03 20:35 -24.25594 -47.13618 33888 ft 402 kts 229°
2026-05-03 20:36 -24.27774 -47.15545 34405 ft 403 kts 224°
2026-05-03 20:36 -24.30100 -47.17303 34857 ft 404 kts 221°
2026-05-03 20:36 -24.32477 -47.18964 35245 ft 404 kts 220°
2026-05-03 20:36 -24.34885 -47.20597 35601 ft 403 kts 220°
2026-05-03 20:37 -24.37277 -47.22209 35941 ft 402 kts 220°
2026-05-03 20:37 -24.39690 -47.23844 36178 ft 400 kts 220°
2026-05-03 20:37 -24.42069 -47.25462 36179 ft 390 kts 221°
2026-05-03 20:38 -24.46631 -47.28591 36184 ft 381 kts 221°
2026-05-03 20:38 -24.51153 -47.31747 36180 ft 386 kts 221°
2026-05-03 20:39 -24.55689 -47.34912 36181 ft 382 kts 221°
2026-05-03 20:39 -24.60199 -47.38062 36188 ft 384 kts 221°
2026-05-03 20:40 -24.64747 -47.41237 36187 ft 383 kts 221°
2026-05-03 20:40 -24.69254 -47.44386 36183 ft 383 kts 221°
2026-05-03 20:41 -24.73755 -47.47533 36184 ft 381 kts 221°
2026-05-03 20:41 -24.78299 -47.50716 36181 ft 382 kts 221°
2026-05-03 20:42 -24.82773 -47.53849 36182 ft 381 kts 222°
2026-05-03 20:42 -24.87278 -47.57011 36186 ft 381 kts 221°
2026-05-03 20:43 -24.91777 -47.60171 36189 ft 383 kts 222°
2026-05-03 20:43 -24.96262 -47.63317 36187 ft 380 kts 222°
2026-05-03 20:44 -25.00777 -47.66493 36186 ft 380 kts 222°
2026-05-03 20:44 -25.05242 -47.69632 36187 ft 380 kts 222°
2026-05-03 20:45 -25.09712 -47.72784 36190 ft 381 kts 222°
2026-05-03 20:45 -25.14197 -47.75944 36185 ft 380 kts 222°
2026-05-03 20:46 -25.18701 -47.79121 36184 ft 379 kts 222°
2026-05-03 20:46 -25.23199 -47.82299 36195 ft 381 kts 222°
2026-05-03 20:47 -25.27680 -47.85466 36187 ft 380 kts 222°
2026-05-03 20:47 -25.32178 -47.88649 36190 ft 380 kts 222°
2026-05-03 20:48 -25.36661 -47.91826 36193 ft 381 kts 222°
2026-05-03 20:48 -25.41130 -47.94994 36195 ft 380 kts 222°
2026-05-03 20:49 -25.45609 -47.98175 36195 ft 381 kts 222°
2026-05-03 20:49 -25.50084 -48.01356 36192 ft 380 kts 222°
2026-05-03 20:50 -25.54553 -48.04533 36196 ft 380 kts 222°
2026-05-03 20:50 -25.59020 -48.07712 36199 ft 380 kts 222°
2026-05-03 20:51 -25.63522 -48.10918 36196 ft 379 kts 222°
2026-05-03 20:51 -25.67971 -48.14084 36194 ft 379 kts 222°
2026-05-03 20:52 -25.72476 -48.17283 36200 ft 384 kts 221°
2026-05-03 20:52 -25.77066 -48.20533 36200 ft 390 kts 221°
2026-05-03 20:53 -25.81700 -48.23825 36200 ft 397 kts 221°
2026-05-03 20:53 -25.86385 -48.27159 36202 ft 403 kts 221°
2026-05-03 20:54 -25.91159 -48.30564 36202 ft 409 kts 221°
2026-05-03 20:54 -25.98461 -48.35780 36198 ft 415 kts 221°
2026-05-03 20:55 -26.03365 -48.39287 36203 ft 418 kts 221°
2026-05-03 20:55 -26.08280 -48.42805 36203 ft 420 kts 221°
2026-05-03 20:56 -26.13234 -48.46359 36205 ft 421 kts 221°
2026-05-03 20:56 -26.18190 -48.49918 36209 ft 422 kts 221°
2026-05-03 20:57 -26.23089 -48.53458 36238 ft 406 kts 221°
2026-05-03 20:57 -26.25422 -48.55136 36199 ft 390 kts 221°
2026-05-03 20:57 -26.27681 -48.56760 36209 ft 384 kts 221°
2026-05-03 20:58 -26.32235 -48.60073 36208 ft 395 kts 221°
2026-05-03 20:58 -26.36880 -48.63445 36213 ft 393 kts 221°
2026-05-03 20:59 -26.41478 -48.66769 36215 ft 392 kts 221°
2026-05-03 20:59 -26.46073 -48.70095 36214 ft 393 kts 221°
2026-05-03 21:00 -26.49904 -48.72887 36213 ft 392 kts 222°
2026-05-03 21:00 -26.55285 -48.76860 36214 ft 393 kts 222°
2026-05-03 21:01 -26.59864 -48.80244 36217 ft 392 kts 222°
2026-05-03 21:01 -26.64458 -48.83641 36219 ft 393 kts 221°
2026-05-03 21:02 -26.69059 -48.87033 36217 ft 392 kts 221°
2026-05-03 21:02 -26.73678 -48.90406 36217 ft 395 kts 221°
2026-05-03 21:03 -26.78332 -48.93798 36219 ft 393 kts 221°
2026-05-03 21:03 -26.82926 -48.97152 36224 ft 393 kts 221°
2026-05-03 21:04 -26.87523 -49.00518 36223 ft 394 kts 221°
2026-05-03 21:04 -26.92126 -49.03888 36219 ft 393 kts 221°
2026-05-03 21:05 -26.96731 -49.07267 36213 ft 392 kts 221°
2026-05-03 21:05 -27.01304 -49.10624 36219 ft 393 kts 221°
2026-05-03 21:06 -27.05914 -49.14013 36213 ft 392 kts 221°
2026-05-03 21:06 -27.10512 -49.17397 36211 ft 393 kts 221°
2026-05-03 21:07 -27.15119 -49.20790 36210 ft 392 kts 221°
2026-05-03 21:07 -27.19721 -49.24185 36213 ft 394 kts 221°
2026-05-03 21:08 -27.24323 -49.27581 36212 ft 394 kts 220°
2026-05-03 21:08 -27.28916 -49.30975 36210 ft 394 kts 220°
2026-05-03 21:09 -27.33507 -49.34367 36211 ft 395 kts 220°
2026-05-03 21:09 -27.38154 -49.37807 36205 ft 395 kts 220°
2026-05-03 21:10 -27.42749 -49.41211 36193 ft 394 kts 220°
2026-05-03 21:10 -27.47371 -49.44641 36194 ft 396 kts 220°
2026-05-03 21:11 -27.51978 -49.48062 36192 ft 396 kts 220°
2026-05-03 21:11 -27.56521 -49.51612 36193 ft 394 kts 225°
2026-05-03 21:12 -27.60666 -49.55632 36192 ft 391 kts 228°
2026-05-03 21:12 -27.64703 -49.59782 36195 ft 392 kts 228°
2026-05-03 21:13 -27.68752 -49.63925 36193 ft 392 kts 227°
2026-05-03 21:13 -27.72831 -49.68060 36194 ft 393 kts 227°
2026-05-03 21:14 -27.76908 -49.72175 36195 ft 393 kts 227°
2026-05-03 21:14 -27.80979 -49.76279 36195 ft 393 kts 227°
2026-05-03 21:15 -27.85083 -49.80418 36191 ft 394 kts 227°
2026-05-03 21:15 -27.89176 -49.84552 36196 ft 395 kts 227°
2026-05-03 21:16 -27.93276 -49.88696 36200 ft 395 kts 227°
2026-05-03 21:16 -27.97395 -49.92864 36197 ft 395 kts 227°
2026-05-03 21:17 -28.00818 -49.96330 36198 ft 395 kts 227°
2026-05-03 21:17 -28.05611 -50.01189 36198 ft 395 kts 227°
2026-05-03 21:18 -28.09700 -50.05339 36197 ft 395 kts 227°
2026-05-03 21:18 -28.13809 -50.09515 36205 ft 396 kts 227°
2026-05-03 21:19 -28.17892 -50.13671 36200 ft 395 kts 227°
2026-05-03 21:19 -28.22004 -50.17858 36202 ft 395 kts 227°
2026-05-03 21:20 -28.26093 -50.22025 36198 ft 395 kts 227°
2026-05-03 21:20 -28.30193 -50.26211 36196 ft 395 kts 227°
2026-05-03 21:21 -28.34276 -50.30381 36198 ft 394 kts 227°
2026-05-03 21:21 -28.38364 -50.34563 36196 ft 394 kts 227°
2026-05-03 21:22 -28.42445 -50.38742 36199 ft 396 kts 227°
2026-05-03 21:22 -28.46547 -50.42946 36199 ft 394 kts 227°
2026-05-03 21:23 -28.50613 -50.47117 36204 ft 395 kts 227°
2026-05-03 21:23 -28.54700 -50.51317 36196 ft 395 kts 227°
2026-05-03 21:24 -28.58810 -50.55543 36194 ft 394 kts 227°
2026-05-03 21:24 -28.62880 -50.59732 36189 ft 394 kts 227°
2026-05-03 21:25 -28.66958 -50.63936 36178 ft 395 kts 227°
2026-05-03 21:25 -28.71053 -50.68162 36174 ft 394 kts 227°
2026-05-03 21:26 -28.75117 -50.72360 36170 ft 394 kts 227°
2026-05-03 21:26 -28.79190 -50.76572 36175 ft 395 kts 227°
2026-05-03 21:27 -28.83276 -50.80800 36176 ft 395 kts 227°
2026-05-03 21:27 -28.87345 -50.85016 36178 ft 395 kts 227°
2026-05-03 21:28 -28.91409 -50.89232 36181 ft 395 kts 227°
2026-05-03 21:28 -28.95487 -50.93467 36178 ft 394 kts 227°
2026-05-03 21:29 -28.99579 -50.97721 36181 ft 395 kts 227°
2026-05-03 21:29 -29.03637 -51.01945 36178 ft 394 kts 227°
2026-05-03 21:30 -29.07676 -51.06152 36176 ft 393 kts 227°
2026-05-03 21:30 -29.11751 -51.10403 36170 ft 392 kts 227°
2026-05-03 21:31 -29.15784 -51.14613 36173 ft 393 kts 227°
2026-05-03 21:31 -29.20059 -51.18625 36163 ft 398 kts 219°
2026-05-03 21:32 -29.24959 -51.21684 36161 ft 405 kts 212°
2026-05-03 21:32 -29.30159 -51.24362 36160 ft 408 kts 210°
2026-05-03 21:33 -29.35325 -51.26947 36159 ft 407 kts 210°
2026-05-03 21:33 -29.40531 -51.29591 36156 ft 406 kts 210°
2026-05-03 21:34 -29.45673 -51.32238 36150 ft 406 kts 211°
2026-05-03 21:34 -29.50864 -51.34931 36150 ft 406 kts 211°
2026-05-03 21:35 -29.56009 -51.37606 36150 ft 405 kts 211°
2026-05-03 21:35 -29.61169 -51.40292 36152 ft 406 kts 211°
2026-05-03 21:36 -29.66348 -51.42994 36147 ft 407 kts 211°
2026-05-03 21:36 -29.71500 -51.45680 36151 ft 405 kts 211°
2026-05-03 21:37 -29.76644 -51.48369 36156 ft 408 kts 211°
2026-05-03 21:37 -29.81803 -51.51066 36150 ft 406 kts 211°
2026-05-03 21:38 -29.86995 -51.53785 36147 ft 406 kts 211°
2026-05-03 21:38 -29.92128 -51.56476 36147 ft 406 kts 211°
2026-05-03 21:39 -29.97304 -51.59194 36151 ft 407 kts 211°
2026-05-03 21:39 -30.02498 -51.61924 36155 ft 406 kts 211°
2026-05-03 21:40 -30.07634 -51.64626 36160 ft 407 kts 211°
2026-05-03 21:40 -30.12804 -51.67349 36166 ft 406 kts 211°
2026-05-03 21:41 -30.17964 -51.70071 36161 ft 407 kts 211°
2026-05-03 21:41 -30.23134 -51.72800 36164 ft 406 kts 211°
2026-05-03 21:42 -30.28304 -51.75535 36165 ft 408 kts 211°
2026-05-03 21:42 -30.33457 -51.78260 36163 ft 407 kts 211°
2026-05-03 21:43 -30.38640 -51.81006 36156 ft 407 kts 211°
2026-05-03 21:43 -30.43764 -51.83723 36157 ft 409 kts 211°
2026-05-03 21:44 -30.48966 -51.86487 36158 ft 409 kts 211°
2026-05-03 21:44 -30.54175 -51.89255 36160 ft 409 kts 211°
2026-05-03 21:45 -30.59375 -51.92024 36157 ft 410 kts 211°
2026-05-03 21:45 -30.64565 -51.94789 36166 ft 410 kts 211°
2026-05-03 21:46 -30.69798 -51.97581 36160 ft 411 kts 211°
2026-05-03 21:46 -30.75014 -52.00368 36161 ft 412 kts 211°
2026-05-03 21:47 -30.80243 -52.03163 36165 ft 411 kts 211°
2026-05-03 21:47 -30.85427 -52.05939 36165 ft 411 kts 211°
2026-05-03 21:48 -30.90667 -52.08750 36172 ft 412 kts 211°
2026-05-03 21:48 -30.95920 -52.11569 36178 ft 411 kts 211°
2026-05-03 21:49 -31.01153 -52.14381 36169 ft 410 kts 211°
2026-05-03 21:49 -31.06353 -52.17178 36177 ft 412 kts 211°
2026-05-03 21:50 -31.11576 -52.19991 36163 ft 411 kts 211°
2026-05-03 21:50 -31.16781 -52.22798 36159 ft 411 kts 211°
2026-05-03 21:51 -31.21998 -52.25614 36163 ft 411 kts 211°
2026-05-03 21:51 -31.27194 -52.28424 36163 ft 410 kts 211°
2026-05-03 21:52 -31.32425 -52.31256 36159 ft 411 kts 211°
2026-05-03 21:52 -31.37606 -52.34065 36161 ft 411 kts 211°
2026-05-03 21:53 -31.42852 -52.36912 36166 ft 411 kts 211°
2026-05-03 21:53 -31.48039 -52.39730 36158 ft 411 kts 211°
2026-05-03 21:54 -31.53223 -52.42549 36162 ft 411 kts 211°
2026-05-03 21:54 -31.58411 -52.45374 36166 ft 411 kts 211°
2026-05-03 21:55 -31.63634 -52.48223 36162 ft 410 kts 211°
2026-05-03 21:55 -31.68814 -52.51051 36166 ft 412 kts 211°
2026-05-03 21:56 -31.74034 -52.53905 36164 ft 412 kts 211°
2026-05-03 21:56 -31.79269 -52.56770 36163 ft 411 kts 210°
2026-05-03 21:57 -31.84495 -52.59633 36164 ft 411 kts 210°
2026-05-03 21:57 -31.89725 -52.62503 36157 ft 412 kts 210°
2026-05-03 21:58 -31.94915 -52.65354 36156 ft 411 kts 211°
2026-05-03 21:58 -32.00116 -52.68215 36155 ft 411 kts 211°
2026-05-03 21:59 -32.05302 -52.71072 36157 ft 411 kts 211°
2026-05-03 21:59 -32.10477 -52.73926 36159 ft 411 kts 211°
2026-05-03 22:00 -32.15677 -52.76797 36149 ft 411 kts 211°
2026-05-03 22:00 -32.20836 -52.79649 36150 ft 409 kts 211°
2026-05-03 22:01 -32.26013 -52.82516 36158 ft 409 kts 211°
2026-05-03 22:01 -32.31167 -52.85373 36159 ft 410 kts 211°
2026-05-03 22:02 -32.36356 -52.88253 36158 ft 410 kts 211°
2026-05-03 22:02 -32.41502 -52.91112 36156 ft 409 kts 211°
2026-05-03 22:03 -32.46668 -52.93985 36153 ft 410 kts 211°
2026-05-03 22:03 -32.51791 -52.96968 36155 ft 405 kts 217°
2026-05-03 22:04 -32.56152 -53.01069 36159 ft 398 kts 226°
2026-05-03 22:04 -32.60301 -53.05394 36158 ft 398 kts 224°
2026-05-03 22:05 -32.64587 -53.09635 36155 ft 398 kts 224°
2026-05-03 22:05 -32.68853 -53.13851 36155 ft 399 kts 224°
2026-05-03 22:06 -32.73107 -53.18088 36153 ft 398 kts 224°
2026-05-03 22:06 -32.77335 -53.22324 36155 ft 398 kts 224°
2026-05-03 22:07 -32.81578 -53.26586 36153 ft 398 kts 224°
2026-05-03 22:07 -32.85797 -53.30833 36153 ft 397 kts 224°
2026-05-03 22:08 -32.87914 -53.32966 35961 ft 394 kts 224°
2026-05-03 22:08 -32.89999 -53.35068 36150 ft 396 kts 224°
2026-05-03 22:08 -32.94230 -53.39341 36153 ft 398 kts 224°
2026-05-03 22:09 -32.98426 -53.43579 36161 ft 397 kts 224°
2026-05-03 22:10 -33.04723 -53.49955 36152 ft 397 kts 224°
2026-05-03 22:10 -33.08913 -53.54203 36154 ft 398 kts 224°
2026-05-03 22:11 -33.13133 -53.58485 36153 ft 397 kts 224°
2026-05-03 22:11 -33.17328 -53.62751 36153 ft 397 kts 224°
2026-05-03 22:12 -33.21518 -53.67014 36152 ft 397 kts 225°
2026-05-03 22:12 -33.25717 -53.71295 36152 ft 396 kts 224°
2026-05-03 22:13 -33.29914 -53.75577 36152 ft 397 kts 225°
2026-05-03 22:13 -33.34106 -53.79861 36528 ft 397 kts 224°
2026-05-03 22:13 -33.36189 -53.81994 36258 ft 399 kts 224°
2026-05-03 22:14 -33.38293 -53.84146 36153 ft 393 kts 224°
2026-05-03 22:14 -33.42433 -53.88386 36152 ft 396 kts 224°
2026-05-03 22:15 -33.46630 -53.92693 36151 ft 395 kts 224°
2026-05-03 22:15 -33.50811 -53.96987 36151 ft 396 kts 224°
2026-05-03 22:16 -33.54992 -54.01287 36154 ft 396 kts 224°
2026-05-03 22:16 -33.59160 -54.05579 36151 ft 395 kts 224°
2026-05-03 22:17 -33.63335 -54.09884 35957 ft 394 kts 224°
2026-05-03 22:17 -33.65409 -54.12023 35519 ft 388 kts 224°
2026-05-03 22:17 -33.67438 -54.14116 34936 ft 385 kts 224°
2026-05-03 22:17 -33.69460 -54.16206 34261 ft 385 kts 224°
2026-05-03 22:18 -33.71496 -54.18314 33571 ft 385 kts 224°
2026-05-03 22:18 -33.73557 -54.20450 32851 ft 386 kts 224°
2026-05-03 22:18 -33.75576 -54.22543 32347 ft 388 kts 224°
2026-05-03 22:18 -33.77657 -54.24702 31790 ft 391 kts 223°
2026-05-03 22:19 -33.79685 -54.26805 31225 ft 388 kts 223°
2026-05-03 22:19 -33.81714 -54.28910 30662 ft 384 kts 223°
2026-05-03 22:19 -33.83736 -54.31006 30106 ft 380 kts 223°
2026-05-03 22:19 -33.85729 -54.33075 29553 ft 377 kts 223°
2026-05-03 22:20 -33.87702 -54.35125 28996 ft 374 kts 223°
2026-05-03 22:20 -33.89662 -54.37164 28442 ft 370 kts 224°
2026-05-03 22:20 -33.91574 -54.39154 27905 ft 367 kts 224°
2026-05-03 22:20 -33.93487 -54.41148 27368 ft 364 kts 224°
2026-05-03 22:21 -33.95413 -54.43154 26832 ft 360 kts 224°
2026-05-03 22:21 -33.97274 -54.45097 26301 ft 357 kts 224°
2026-05-03 22:21 -33.99138 -54.47043 25765 ft 354 kts 224°
2026-05-03 22:21 -34.00995 -54.48982 25246 ft 351 kts 224°
2026-05-03 22:22 -34.02828 -54.50897 24726 ft 348 kts 224°
2026-05-03 22:22 -34.04646 -54.52797 24226 ft 345 kts 224°
2026-05-03 22:22 -34.06443 -54.54677 23719 ft 342 kts 224°
2026-05-03 22:22 -34.08248 -54.56569 23208 ft 346 kts 224°
2026-05-03 22:23 -34.10059 -54.58471 22694 ft 349 kts 224°
2026-05-03 22:23 -34.11877 -54.60379 22170 ft 346 kts 224°
2026-05-03 22:23 -34.13671 -54.62261 21657 ft 343 kts 224°
2026-05-03 22:23 -34.15471 -54.64148 21147 ft 341 kts 224°
2026-05-03 22:24 -34.17260 -54.66024 20635 ft 338 kts 224°
2026-05-03 22:24 -34.19005 -54.67855 20138 ft 336 kts 224°
2026-05-03 22:24 -34.20762 -54.69701 19630 ft 333 kts 224°
2026-05-03 22:24 -34.22511 -54.71540 19116 ft 331 kts 224°
2026-05-03 22:25 -34.24221 -54.73339 18660 ft 328 kts 224°
2026-05-03 22:25 -34.25932 -54.75141 18187 ft 325 kts 224°
2026-05-03 22:25 -34.27627 -54.76928 17700 ft 323 kts 224°
2026-05-03 22:25 -34.29312 -54.78707 17213 ft 326 kts 224°
2026-05-03 22:26 -34.31044 -54.80537 16710 ft 328 kts 224°
2026-05-03 22:26 -34.32735 -54.82321 16203 ft 325 kts 224°
2026-05-03 22:26 -34.34431 -54.84110 15696 ft 322 kts 224°
2026-05-03 22:26 -34.36123 -54.85896 15203 ft 320 kts 224°
2026-05-03 22:27 -34.37785 -54.87652 14711 ft 317 kts 224°
2026-05-03 22:27 -34.39429 -54.89390 14222 ft 315 kts 224°
2026-05-03 22:27 -34.41079 -54.91135 13729 ft 312 kts 224°
2026-05-03 22:27 -34.42702 -54.92853 13245 ft 309 kts 224°
2026-05-03 22:28 -34.44311 -54.94557 12759 ft 307 kts 224°
2026-05-03 22:28 -34.45890 -54.96232 12289 ft 305 kts 224°
2026-05-03 22:28 -34.47478 -54.97916 11807 ft 303 kts 224°
2026-05-03 22:28 -34.49054 -54.99587 11332 ft 301 kts 224°
2026-05-03 22:29 -34.50633 -55.01263 10852 ft 299 kts 224°
2026-05-03 22:29 -34.52176 -55.02902 10497 ft 293 kts 225°
2026-05-03 22:29 -34.53687 -55.04504 10343 ft 280 kts 225°
2026-05-03 22:29 -34.55121 -55.06023 10239 ft 267 kts 225°
2026-05-03 22:30 -34.56501 -55.07492 9965 ft 261 kts 225°
2026-05-03 22:30 -34.57850 -55.08932 9583 ft 261 kts 225°
2026-05-03 22:30 -34.59205 -55.10379 9228 ft 259 kts 225°
2026-05-03 22:30 -34.60550 -55.11813 8936 ft 256 kts 225°
2026-05-03 22:31 -34.61906 -55.13261 8607 ft 264 kts 225°
2026-05-03 22:31 -34.63283 -55.14730 8240 ft 264 kts 225°
2026-05-03 22:31 -34.64661 -55.16197 7881 ft 261 kts 225°
2026-05-03 22:31 -34.66022 -55.17648 7524 ft 259 kts 225°
2026-05-03 22:32 -34.67364 -55.19079 7169 ft 257 kts 225°
2026-05-03 22:32 -34.68705 -55.20511 6823 ft 255 kts 225°
2026-05-03 22:32 -34.70053 -55.21953 6394 ft 257 kts 225°
2026-05-03 22:32 -34.71392 -55.23385 6039 ft 255 kts 224°
2026-05-03 22:33 -34.72715 -55.24799 5724 ft 252 kts 224°
2026-05-03 22:33 -34.74003 -55.26173 5613 ft 241 kts 225°
2026-05-03 22:33 -34.75237 -55.27491 5544 ft 236 kts 225°
2026-05-03 22:33 -34.76488 -55.28832 5473 ft 230 kts 225°
2026-05-03 22:34 -34.77654 -55.30079 5379 ft 217 kts 225°
2026-05-03 22:34 -34.78754 -55.31256 5295 ft 206 kts 225°
2026-05-03 22:34 -34.79805 -55.32384 5219 ft 198 kts 226°
2026-05-03 22:34 -34.80889 -55.33443 5141 ft 201 kts 214°
2026-05-03 22:35 -34.82251 -55.33919 4981 ft 213 kts 179°
2026-05-03 22:35 -34.83734 -55.33499 4485 ft 225 kts 161°
2026-05-03 22:35 -34.85231 -55.32816 3952 ft 236 kts 160°
2026-05-03 22:35 -34.86769 -55.32164 3601 ft 234 kts 162°
2026-05-03 22:36 -34.88259 -55.31536 3546 ft 217 kts 157°
2026-05-03 22:36 -34.89497 -55.30605 3505 ft 199 kts 130°
2026-05-03 22:36 -34.90099 -55.29194 3433 ft 184 kts 98°
2026-05-03 22:36 -34.90203 -55.27649 3029 ft 190 kts 81°
2026-05-03 22:37 -34.89920 -55.26056 2471 ft 196 kts 66°
2026-05-03 22:37 -34.89476 -55.24514 2034 ft 189 kts 66°
2026-05-03 22:37 -34.89080 -55.23067 1695 ft 177 kts 67°
2026-05-03 22:37 -34.88728 -55.21707 1627 ft 154 kts 66°
2026-05-03 22:38 -34.88407 -55.20478 1620 ft 149 kts 66°
2026-05-03 22:38 -34.88099 -55.19308 1380 ft 141 kts 66°
2026-05-03 22:38 -34.87814 -55.18205 1119 ft 132 kts 66°
2026-05-03 22:38 -34.87540 -55.17158 950 ft 129 kts 67°
2026-05-03 22:39 -34.87286 -55.16135 724 ft 125 kts 68°
2026-05-03 22:39 -34.87038 -55.15125 693 ft 124 kts 68°
2026-05-03 22:39 -34.86761 -55.14116 579 ft 129 kts 65°
2026-05-03 22:39 -34.86463 -55.13063 427 ft 129 kts 66°
2026-05-03 22:40 -34.86192 -55.12030 276 ft 128 kts 68°
2026-05-03 22:40 -34.85926 -55.10995 104 ft 126 kts 68°
2026-05-03 22:40 -34.85695 -55.10128 88 ft 75 kts 72°
2026-05-03 22:40 -34.85584 -55.09701 84 ft 39 kts 75°
2026-05-03 22:41 -34.85521 -55.09456 81 ft 14 kts 99°
2026-05-03 22:41 -34.85592 -55.09427 83 ft 9 kts 181°
2026-05-03 22:41 -34.85661 -55.09431 85 ft 12 kts 200°
2026-05-03 22:41 -34.85716 -55.09532 88 ft 17 kts 248°
2026-05-03 22:42 -34.85751 -55.09674 88 ft 16 kts 255°
2026-05-03 22:42 -34.85781 -55.09797 90 ft 11 kts 251°
2026-05-03 22:42 -34.85820 -55.09854 92 ft 8 kts 185°
2026-05-03 22:42 -34.85852 -55.09852 93 ft 2 kts 175°
2026-05-03 22:43 -34.85862 -55.09851 93 ft 0 kts 175°
2026-05-03 22:43 -34.85866 -55.09851 93 ft 1 kts 179°
2026-05-03 22:43 -34.85891 -55.09868 93 ft 6 kts 221°
2026-05-03 22:43 -34.85912 -55.09878 94 ft 1 kts 190°
2026-05-03 22:44 -34.85933 -55.09875 95 ft 3 kts 167°
2026-05-03 22:44 -34.85943 -55.09872 95 ft 1 kts 162°
2026-05-03 22:44 -34.85944 -55.09872 95 ft 0 kts 162°